Regional Weather Roundup
Issued by NWS Cleveland, OH

Home | Current Version | Previous Version | Graphics & Text | Print | Product List | Glossary On
Versions: 1 2 3 4 5 6 7 8 9 10 11 12 13 14 15 16 17 18 19 20 21 22 23 24 25 26 27 28 29 30 31 32 33 34 35 36 37 38 39 40 41 42 43 44 45 46 47 48 49 50
000
ASUS41 KCLE 240002
RWRCLE
OHIO REGIONAL WEATHER ROUNDUP
NATIONAL WEATHER SERVICE CLEVELAND, OH
800 PM EDT TUE SEP 23 2014

NOTE: "FAIR" INDICATES FEW OR NO CLOUDS BELOW 12,000 FEET WITH NO
SIGNIFICANT WEATHER AND/OR OBSTRUCTIONS TO VISIBILITY.

OHZ001>008-015>018-024>027-034-035-043-044-240100-
   NORTHWEST OHIO

CITY           SKY/WX    TMP DP  RH WIND       PRES   REMARKS
DEFIANCE       CLEAR    N/A N/A N/A CALM      30.31S
FINDLAY        CLEAR     65  47  52 E5        30.31R
TOLEDO EXPRESS CLEAR     57  52  83 E3        30.32S
TOLEDO EXEC    CLEAR     59  50  72 E6          N/A
LIMA           CLEAR     60  52  74 CALM      30.31S
$$

OHZ009>014-019>023-028>033-038-089-240100-
   NORTHEAST OHIO

CITY           SKY/WX    TMP DP  RH WIND       PRES   REMARKS
CLE-HOPKINS    CLEAR     60  50  69 NE7       30.36S
CLE-LAKEFRONT  CLEAR     61  52  72 NE8       30.34S
CUY CO. ARPT   CLEAR     59  54  82 NE6       30.36S
LORAIN-ELYRIA  CLEAR     60  51  72 NE5       30.35S
ASHTABULA      CLEAR     54  52  93 N3        30.37S
AKRON-CANTON   CLEAR     59  45  59 E5        30.34S
WOOSTER        CLEAR     54  47  77 CALM      30.35R
MANSFIELD      CLEAR     58  48  69 NE5       30.33S
YOUNGSTOWN     CLEAR     55  50  83 E5        30.35R
$$

OHZ042-051>053-060>062-070>072-077>081-240100-
  SOUTHWEST OHIO

CITY           SKY/WX    TMP DP  RH WIND       PRES   REMARKS
CINC-COVINGTON CLEAR     67  43  41 N6        30.28S
CINC-LUNKEN    CLEAR     60  50  69 CALM      30.29R
HAMILTON       CLEAR     56  50  80 CALM      30.29S
DAYTON         CLEAR     67  43  41 NE5       30.31S
WRIGHT-PAT AFB CLEAR     63  47  54 CALM      30.29S
DAYTON GENERAL CLEAR     63  47  55 CALM      30.29S
WILMINGTON     CLEAR     61  43  51 NE6       30.30R
$$

OHZ036-037-039>041-045>050-054>059-063>069-073>076-082>088-240100-
  CENTRAL AND SOUTHEAST OHIO

CITY           SKY/WX    TMP DP  RH WIND       PRES   REMARKS
COLUMBUS       CLEAR     66  42  41 E3        30.30S
OSU AIRPORT    CLEAR     60  45  57 NE5       30.31S
BOLTON FIELD   CLEAR     63  44  50 E3        30.31
RICKENBACK AFB CLEAR     60  43  53 E6        30.30S
NEWARK         LGT RAIN  55  47  74 CALM      30.32R
MARION         CLEAR     58  47  66 NE5       30.32R
LANCASTER      CLEAR     54  46  74 E3        30.32R
ZANESVILLE     CLEAR     60  45  57 CALM      30.32R
NEW PHILLY     NOT AVBL
$$


USA.gov is the U.S. government's official web portal to all federal, state and local government web resources and services.